This is the latest recevied weather packets stored in our database for station/object K7LDN-13. If no packets are shown the sender has not sent any weather packets the latest 10 day(s).
| Time | Temp. | Humidity | Pressure | Rain* | Wind** | Luminosity | Snow |
|---|---|---|---|---|---|---|---|
| 1777152725 | 16.67° C | 25% | 1009.9 hPa | 0 mm | - | 524 W/m² | - |
| 1777152422 | 16.67° C | 26% | 1010.1 hPa | 0 mm | - | 604 W/m² | - |
| 1777152119 | 16.67° C | 25% | 1010.2 hPa | 0 mm | - | 634 W/m² | - |
| 1777151813 | 17.22° C | 26% | 1010.2 hPa | 0 mm | - | 641 W/m² | - |
| 1777151510 | 16.67° C | 25% | 1010.2 hPa | 0 mm | - | 627 W/m² | - |
| 1777151206 | 16.67° C | 26% | 1010.3 hPa | 0 mm | - | 660 W/m² | - |
| 1777150905 | 16.11° C | 26% | 1010.3 hPa | 0 mm | - | 728 W/m² | - |
| 1777150601 | 16.11° C | 26% | 1010.4 hPa | 0 mm | - | 698 W/m² | - |
| 1777150297 | 16.11° C | 27% | 1010.6 hPa | 0 mm | - | 661 W/m² | - |
| 1777149995 | 16.11° C | 26% | 1010.3 hPa | 0 mm | - | 636 W/m² | - |
| 1777149690 | 15.56° C | 27% | 1010.6 hPa | 0 mm | - | 619 W/m² | - |
| 1777149388 | 15° C | 27% | 1010.6 hPa | 0 mm | - | 394 W/m² | - |
| 1777149083 | 15° C | 27% | 1010.8 hPa | 0 mm | - | 612 W/m² | - |
| 1777148778 | 15° C | 28% | 1010.8 hPa | 0 mm | - | 648 W/m² | - |
| 1777148475 | 15° C | 27% | 1010.8 hPa | 0 mm | - | 518 W/m² | - |
| 1777148171 | 15.56° C | 27% | 1010.8 hPa | 0 mm | - | 406 W/m² | - |
| 1777147867 | 15.56° C | 27% | 1011 hPa | 0 mm | - | 504 W/m² | - |
| 1777147563 | 15.56° C | 26% | 1011 hPa | 0 mm | - | 721 W/m² | - |
| 1777147258 | 16.11° C | 27% | 1011.1 hPa | 0 mm | - | 781 W/m² | - |
| 1777146954 | 15.56° C | 26% | 1011.2 hPa | 0 mm | - | 856 W/m² | - |
| 1777146650 | 15° C | 29% | 1011.2 hPa | 0 mm | - | 881 W/m² | - |
| 1777146346 | 15° C | 26% | 1011.5 hPa | 0 mm | - | 876 W/m² | - |
| 1777146043 | 14.44° C | 29% | 1011.6 hPa | 0 mm | - | 881 W/m² | - |
| 1777145739 | 13.89° C | 29% | 1011.5 hPa | 0 mm | - | 890 W/m² | - |
| 1777145435 | 14.44° C | 27% | 1011.5 hPa | 0 mm | - | 907 W/m² | - |
* Rain latest hour (hover to see other rain measurements)
** Current wind speed in m/s (hover to see current wind gust speed)